Regional Weather Roundup
Issued by NWS

Home | Current Version | Previous Version | Text Only | Print | Product List | Glossary On
Versions: 1 2 3 4 5 6 7 8 9 10 11 12 13 14 15 16 17 18 19 20 21 22 23 24 25 26 27 28 29 30 31 32 33 34 35 36 37 38 39 40 41 42 43 44 45 46 47 48 49 50
000
ASUS43 KMPX 201510
RWRMN
WEATHER ROUNDUP FOR MINNESOTA
NATIONAL WEATHER SERVICE TWIN CITIES/CHANHASSEN MN
900 AM CST SAT JAN 20 2018


NOTE: "FAIR" INDICATES FEW OR NO CLOUDS BELOW 12,000 FEET WITH NO
SIGNIFICANT WEATHER AND/OR OBSTRUCTIONS TO VISIBILITY. N/A MEANS
CURRENT SKY AND/OR WEATHER CONDITIONS ARE NOT AVAILABLE.

MNZ060>063-068>070-201600-
   Twin Cities Metro

CITY           SKY/WX    TMP DP  RH WIND       PRES   REMARKS
TWIN CITIES    PTSUNNY   30  29  96 CALM      29.87R
ST PAUL        CLOUDY    27  26  96 CALM      29.87R
CRYSTAL        CLOUDY    29  25  85 CALM      29.84R
BLAINE         PTSUNNY   30  30 100 CALM      29.84S
LAKEVILLE      FAIR      28  28 100 SW5       29.86R WCI  23
EDEN PRAIRIE   FAIR      29  28  96 SW5       29.85R WCI  24
SOUTH ST PAUL  FAIR      28  28  99 CALM      29.86R
LAKE ELMO      FAIR      28  28 100 CALM      29.86R
$$
MNZ001>005-007-008-013>017-022>024-027-028-201600-
   Northwest Minnesota

CITY           SKY/WX    TMP DP  RH WIND       PRES   REMARKS
BEMIDJI        FAIR      26  25  97 SW5       29.78R WCI  20
HALLOCK        FAIR      18  16  93 S3        29.76R
ROSEAU         FAIR      25  21  86 W5        29.76R WCI  19
WARROAD        FAIR      25  21  86 SW5       29.76R WCI  19
THIEF RVR FALL FAIR      22  20  92 SW5       29.78R WCI  16
CROOKSTON      FAIR      21  21 100 SE7       29.79S WCI  13
FOSSTON        FAIR      21  19  93 S8        29.79S WCI  12
DETROIT LAKES  FAIR      27  25  93 CALM      29.81R
MOORHEAD       FAIR      25  21  86 SW7       29.84R WCI  17
PARK RAPIDS    CLOUDY    25  22  88 CALM      29.79R FOG
MAHNOMEN       FAIR      23  22  96 SW7       29.80R WCI  15
$$
MNZ006-009>011-018-025>026-201600-
   North Central Minnesota

CITY           SKY/WX    TMP DP  RH WIND       PRES   REMARKS
BAUDETTE       FAIR      25  23  92 SW5       29.74R WCI  19
FLAG ISLAND    CLOUDY    27  25  93 S3        29.74R FOG
INTL FALLS     FAIR      27  24  89 SW6       29.75R WCI  20
WASKISH        FAIR      27  25  93 SW5       29.77R WCI  21
BIG FORK       FAIR      27  25  93 CALM      29.76R
LONGVILLE      CLOUDY    27  27 100 SW5       29.80R WCI  21
GRAND RAPIDS   CLOUDY    25  24  96 CALM      29.81R
CRANE LAKE     FAIR      28  27  93 SW6       29.78R WCI  22
ORR            FAIR      27  25  93 CALM      29.74R
COOK           MOCLDY    27  27 100 CALM      29.76S
WALKER         CLOUDY    27  25  92 CALM      29.78R
$$
MNZ012-019>021-037-201600-
   Northeast Minnesota

CITY           SKY/WX    TMP DP  RH WIND       PRES   REMARKS
DULUTH         MOCLDY    29  27  92 W5        29.79R WCI  24
ELY            FAIR      28  28 100 SW7       29.76R WCI  21
HIBBING        MOCLDY    21  21 100 CALM      29.78R FOG
EVELETH        CLOUDY    22  20  90 CALM      29.78R FOG
DULUTH HARBOR  FAIR      30  27  86 SW7       29.83R WCI  23
TWO HARBORS    FAIR      30  27  86 W5        29.78R WCI  25
SILVER BAY     FAIR      32  30  93 SW5       29.77R WCI  27
GRAND MARAIS     N/A     36  31  82 SW6       29.77R
G MARAIS ARPRT FAIR      30  25  80 SW3       29.73R
$$
MNZ029>031-032-039>041-046>048-054>057-064-201600-
   West Central Minnesota

CITY           SKY/WX    TMP DP  RH WIND       PRES   REMARKS
FERGUS FALLS   FAIR      25  25 100 CALM      29.84R
WHEATON        PTCLDY    34  27  75 SW5       29.88R WCI  30
MORRIS         CLOUDY    30  28  93 W6        29.83R WCI  24
ALEXANDRIA     CLOUDY    30  27  88 W6        29.83R WCI  24
ELBOW LAKE     FAIR      27  26  96 S3        29.84R FOG
WADENA         FAIR      25  25 100 W5        29.81R WCI  19
GLENWOOD       FAIR      28  27  93 W3        29.84R
APPLETON       CLOUDY    30  28  93 CALM      29.85R
BENSON         CLOUDY    30  28  93 CALM      29.86R
ORTONVILLE     CLOUDY    34  28  80 W5        29.85R WCI  30
MADISON        CLOUDY    36  30  80 CALM      29.85R
WILLMAR        MOCLDY    30  28  93 CALM      29.87R
$$
MNZ033>034-036-042>043-049>051-058-059-201600-
   Central Minnesota

CITY           SKY/WX    TMP DP  RH WIND       PRES   REMARKS
ST CLOUD       CLOUDY    27  27 100 CALM      29.83R
SAUK CENTRE      N/A     28  27  94 CALM      29.83R
PAYNESVILLE    CLOUDY    29  29  99 CALM      29.85R
AITKIN         FAIR      25  23  93 CALM      29.80R
PINE RIVER     FAIR      21  21 100 CALM      29.84R FOG
BRAINERD       CLOUDY    28  26  92 SW3       29.81R
STAPLES        MOCLDY    25  25 100 CALM      29.80R
LONG PRAIRIE   FAIR      27  27 100 SE3       29.82R
LITTLE FALLS   CLOUDY    28  27  93 CALM      29.84R
LITCHFIELD     CLOUDY    34  32  93 CALM      29.85R
BUFFALO        CLOUDY    28  27  94 CALM      29.85R
MAPLE LAKE     CLOUDY    30  29  97 MISG      29.85R
HUTCHINSON     CLOUDY    32  30  93 CALM      29.86R
$$
MNZ037-044-045-052-053-201600-
   East Central Minnesota

CITY           SKY/WX    TMP DP  RH WIND       PRES   REMARKS
PRINCETON      CLOUDY    28  28 100 CALM      29.84R
MORA           FAIR      27  23  86 CALM      29.84R
CAMBRIDGE        N/A     28  27  93 CALM      29.84R
RUSH CITY      CLOUDY    28  27  96 CALM      29.83R
MOOSE LAKE     CLOUDY    25  23  93 CALM      29.81R
HINCKLEY       CLOUDY    27  27 100 CALM      29.83R
CLOQUET        FAIR      30  27  86 SW6       29.79S WCI  24
MCGREGOR       CLOUDY    28  27  93 CALM      29.80R
$$
MNZ071>073-080-081-089-090-097-098-201600-
   Southwest Minnesota

CITY           SKY/WX    TMP DP  RH WIND       PRES   REMARKS
MONTEVIDEO     CLOUDY    34  28  80 CALM      29.86R
GRANITE FALLS  CLOUDY    32  30  91 SW3       29.87R
CANBY          CLOUDY    36  30  80 SW3       29.86R
REDWOOD FALLS  CLOUDY    30  28  92 CALM      29.85R
OLIVIA         CLOUDY    30  28  93 W3        29.85R
PIPESTONE      CLOUDY    27  21  80 CALM      29.84R
WINDOM         CLOUDY    25  12  58 CALM      29.86R
WORTHINGTON    CLOUDY    27  24  89 CALM      29.86R
JACKSON        CLOUDY    28  27  93 CALM      29.86R
TRACY          CLOUDY    30  26  87 SW5       29.86R WCI  25
SLAYTON        CLOUDY    29  25  85 CALM      29.85R
$$
MNZ065>067-074>077-082>085-091>093-201600-
   South Central Minnesota

CITY           SKY/WX    TMP DP  RH WIND       PRES   REMARKS
MANKATO        FAIR      27  26  96 CALM      29.89R
NEW ULM        CLOUDY    25  23  93 SW3       29.86S
ST JAMES       CLOUDY    28  27  93 CALM      29.88R
FAIRMONT       CLOUDY    28  27  96 CALM      29.88R
GLENCOE        MOCLDY    30  30 100 CALM      29.85R
FARIBAULT      FAIR      23  21  93 CALM      29.88R FOG
OWATONNA       FAIR      25  23  93 CALM      29.87R
WASECA         FAIR      23  21  93 CALM      29.89R FOG
ALBERT LEA     FAIR      27  27 100 CALM      29.87R
$$
MNZ078>079-086>088-094>096-201600-
   Southeast Minnesota

CITY           SKY/WX    TMP DP  RH WIND       PRES   REMARKS
ROCHESTER      FAIR      29  27  92 W3        29.86R
RED WING       FAIR      27  25  93 CALM      29.87R FOG
STANTON        PTSUNNY   24  22  93 SW6       29.86R WCI  17
DODGE CENTER   FAIR      25  25 100 W5        29.86R WCI  19
WINONA         FAIR      23  21  93 NW3       29.88R
AUSTIN         FAIR      27  25  93 CALM      29.87R
PRESTON        FAIR      29  27  92 CALM      29.87R
$$
ABBREVIATIONS USED IN REMARKS
   TC - TEMPERATURES IN CELSIUS
  WCI - WIND CHILL INDEX
   HX - HEAT INDEX
  VSB - VISIBILITY
$$




USA.gov is the U.S. government's official web portal to all federal, state and local government web resources and services.